Location: Newark
(33.4133°N, 82.3847°W)
Time: 10:45:25
(UTC+00:00)

Hubble Space Telescope - Pass Details

Date: 04 February 2020
Orbit: 536 x 540 km, 28.5° (Epoch: 19 February)

Event Time Altitude Azimuth Distance (km) Brightness Sun altitude
Exits shadow 11:06:11 24° 236° (WSW) 1,112 2.0 -16.5°
Maximum altitude 11:08:08 41° 181° (S) 774 1.6 -16.1°
Drops below altitude 10° 11:12:01 10° 111° (ESE) 1,777 4.7 -15.3°
Sets 11:14:21 0° 104° (ESE) 2,668 6.3 -14.8°
